Regional Weather Roundup
Issued by NWS

Home | Current Version | Previous Version | Text Only | Print | Product List | Glossary On
Versions: 1 2 3 4 5 6 7 8 9 10 11 12 13 14 15 16 17 18 19 20 21 22 23 24 25 26 27
000
ASUS45 KBOU 130510
RWRCO

WEATHER ROUNDUP FOR COLORADO
NATIONAL WEATHER SERVICE DENVER/BOULDER CO
1000 PM MST TUE DEC 12 2017

NOTE: "FAIR" INDICATES FEW OR NO CLOUDS BELOW 12000 FEET WITH NO
SIGNIFICANT WEATHER AND/OR OBSTRUCTIONS TO VISIBILITY.

COZ001>005-013-030-031-130600-
...NORTHWEST COLORADO...

CITY           SKY/WX    TMP DP  RH WIND       PRES   REMARKS
CRAIG          FAIR      15  11  83 CALM      30.32S
HAYDEN         FAIR      29  16  58 E10       30.32F WCI  20
MEEKER         FAIR      25  10  53 NE5       30.33F WCI  19
RABBIT EARS PA FAIR      28   9  43 W9G18     30.37F WCI  20
STEAMBOAT SPGS FAIR      22  15  72 CALM      30.32S
WALDEN         FAIR      18   5  57 E8        30.31F WCI   7
$$

COZ006>008-011-130600-
...WEST CENTRAL VALLEYS...

CITY           SKY/WX    TMP DP  RH WIND       PRES   REMARKS
GRAND JUNCTION FAIR      25   6  44 E5        30.32S WCI  19
MONTROSE       FAIR      24   9  52 SE9       30.35S WCI  14
EAGLE          FAIR      19  12  74 SE3       30.40F
RIFLE          FAIR      24  10  55 E6        30.34F WCI  17
DELTA          FAIR      31   7  36 CALM      30.35R
NUCLA          FAIR      32   7  34 E9        30.35F WCI  24
$$

COZ017>023-064>068-130600-
...SOUTHWEST COLORADO...

CITY           SKY/WX    TMP DP  RH WIND       PRES   REMARKS
DURANGO        FAIR      24   3  40 N8        30.30S WCI  15
CORTEZ         FAIR      19   2  47 E5        30.31F WCI  12
PAGOSA SPRINGS FAIR      24   1  36 CALM      30.32F
TELLURIDE      FAIR      32   8  37 SE6       30.40S WCI  26
WOLF CREEK PAS FAIR      32   0  25 NW3       30.50F
$$

COZ009-010-012-014-032>034-037-058>063-130600-
...CENTRAL COLORADO...

CITY           SKY/WX    TMP DP  RH WIND       PRES   REMARKS
ASPEN          FAIR      25  12  58 S5        30.35F WCI  19
BUENA VISTA    FAIR      37  11  35 NW15      30.31S
COPPER MTN     NOT AVBL
BERTHOUD PASS  FAIR      21  10  63 NW43      30.34F WCI   0
COTTONWOOD PAS FAIR      41   9  26 W16       30.35F
GUNNISON       NOT AVBL
KREMMLING      FAIR      12   9  85 CALM      30.38S
LEADVILLE      FAIR      24   6  46 E6        30.37F WCI  17
MONARCH PASS   FAIR      27   7  43 W25       30.52F WCI  11
SALIDA         FAIR      34   8  34 W6        30.37F WCI  29
SUNLIGHT       FAIR      32   1  27 NW6       30.47F WCI  26
WILKERSON PASS FAIR      32  -4  21 N12G26    30.40F WCI  23
$$

COZ069>075-130600-
...SAN LUIS VALLEY/SANGRE DE CRISTO MOUNTAINS...

CITY           SKY/WX    TMP DP  RH WIND       PRES   REMARKS
ALAMOSA        FAIR      19   2  47 NW6       30.31S WCI  11
DEL NORTE      FAIR      23   0  37 W10       30.32F WCI  12
LA VETA PASS   FAIR      32   5  32 SW21G33     N/A  WCI  20
SAGUACHE       FAIR      32   7  34 NW18      30.31F WCI  20
$$

COZ035-036-038>040-130600-
...NORTHERN COLORADO FRONT RANGE...

CITY           SKY/WX    TMP DP  RH WIND       PRES   REMARKS
DENVER INTL AP FAIR      43  11  27 SW12      30.10F
DMNS CITY PARK NOT AVBL
AURORA         CLEAR     41  12  30 SW10      30.12F
FRONT RANGE AP FAIR      47  12  24 SW13      30.10F
ERIE MUNI ARPT FAIR      49   4  16 W10       30.13F
BOULDER MUN AP FAIR      55   9  15 W13G18    30.08F
CENTENNIAL     FAIR      40  13  33 SW9       30.12F
BROOMFIELD     CLEAR     57   7  13 W17G26    30.12F
FORT COLLINS   FAIR      46  10  23 E6        30.07F
LONGMONT       FAIR      44  10  24 SE6       30.10F
$$

COZ041-046-047-076>085-087-088-130600-
...PIKES PEAK/PALMER DIVIDE AND SOUTHERN FOOTHILLS...

CITY           SKY/WX    TMP DP  RH WIND       PRES   REMARKS
COLO. SPRINGS  FAIR      35  12  38 N9        30.16F WCI  28
A. F. ACADEMY  FAIR      26   9  48 N8        30.16F WCI  17
SCHRIEVER AFB  FAIR      44   9  24 NW5       30.16F
CHEYENNE MTN   FAIR      47  10  22 CALM      30.13F
ELLICOTT         N/A    N/A N/A N/A N3        30.14F
FALCON         FAIR      35   8  32 CALM      30.18F
FORT CARSON    FAIR      38  11  33 NW6       30.14F
LIMON          FAIR      29  11  47 N5        30.10F WCI  24
MONUMENT HILL  FAIR      32  10  40 W10       30.19F WCI  24
CANON CITY     FAIR      46  16  29 W10       30.14F
WALSENBURG     FAIR      50   7  17 W8G21     30.17S
TRINIDAD       FAIR      41  11  29 W13       30.14F
$$

COZ042>045-048>051-090-091-130600-
...NORTHEAST COLORADO...

CITY           SKY/WX    TMP DP  RH WIND       PRES   REMARKS
GREELEY ARPT   FAIR      28  11  48 W6        30.07F WCI  22
AKRON          FAIR      42  14  32 MISG      30.03F
BURLINGTON     FAIR      37  14  38 W13       30.03F
WRAY           FAIR      32  16  51 W10       29.99F WCI  24
YUMA           FAIR      34  14  44 W12       30.00F WCI  25
STERLING       FAIR      43  12  28 W9        29.98F
HOLYOKE        FAIR      43  14  31 W14       29.97F
FORT MORGAN    FAIR      32  14  48 W9        30.04F WCI  24
$$

COZ086-089-092>099-130600-
...SOUTHEAST COLORADO...

CITY           SKY/WX    TMP DP  RH WIND       PRES   REMARKS
PUEBLO         FAIR      32  11  41 CALM      30.11F
LA JUNTA       FAIR      37  11  34 NW8       30.08F
LAMAR          FAIR      36  12  37 SW10      30.04F
SPRINGFIELD      N/A     36  12  37 W3        30.07F
$$




USA.gov is the U.S. government's official web portal to all federal, state and local government web resources and services.